Home > Weather > Compton > Past weeks

Flag for USA Past Weather in Compton, California, USA — Yesterday and Last 2 Weeks

Now
73 °F

Sunny.


Feels Like: 73 °F
Forecast: 68 / 85 °F
Wind: 8 mph from Southwest

Location: Hawthorne Municipal Airport

Current Time: Jul 26, 2016 at 8:55:24 PM

Latest Report: Jul 26, 2016 at 7:53 PM


Visibility: 10 mi

Pressure: 29.85 "Hg

Humidity: 79%

Dew Point: 66 °F

Location of ComptonLocation

Past Weather in Compton — Graph

°F

Compton Temperature Yesterday

Maximum temperature yesterday: 84 °F (at 10:53 AM)
Minimum temperature yesterday: 70 °F (at 4:53 AM)
Average temperature yesterday: 75 °F

High & Low Weather Summary for the Past Weeks

 TemperatureHumidityPressure
High89 °F (Jul 23, 12:53 PM)90% (Jul 26, 5:53 AM)30.03 "Hg (Jul 26, 5:53 AM)
Low64 °F (Jul 15, 3:53 AM)32% (Jul 24, 2:53 PM)29.79 "Hg (Jul 23, 1:53 AM)
Average73 °F69%29.92 "Hg
* Reported Jul 11 7:53 PM — Jul 26 7:53 PM, Compton, Weather by CustomWeather, © 2016

Note: Actual official high and low records may vary slightly from our data, if they occured in-between our weather recording intervals... More about our weather records

Advertising

Compton Weather History for the Previous 24 Hours

Scroll right to see more
 ConditionsComfort  
Time TempWeatherWind HumidityBarometerVisibility
7:53 PM
Tue, Jul 26
73 °FSunny.8 mph79%29.85 "Hg10 mi
6:53 PM75 °FSunny.9 mph71%29.83 "Hg10 mi
5:53 PM78 °FSunny.10 mph62%29.83 "Hg10 mi
4:53 PM79 °FSunny.12 mph58%29.83 "Hg10 mi
3:53 PM79 °FSunny.14 mph62%29.84 "Hg10 mi
2:53 PM80 °FSunny.14 mph56%29.85 "Hg10 mi
1:53 PM81 °FSunny.13 mph54%29.87 "Hg10 mi
12:53 PM80 °FSunny.8 mph60%29.89 "Hg10 mi
11:53 AM78 °FSunny.10 mph64%29.90 "Hg10 mi
10:53 AM76 °FSunny.9 mph69%29.90 "Hg10 mi
9:53 AM74 °FSunny.9 mph71%29.90 "Hg10 mi
8:53 AM72 °FSunny.7 mph78%29.90 "Hg10 mi
7:53 AM70 °FSunny.3 mph84%29.90 "Hg7 mi
6:53 AM68 °FClear.5 mph90%29.89 "Hg7 mi
5:53 AM68 °FClear.3 mph90%29.89 "Hg10 mi
4:53 AM69 °FClear.5 mph87%29.89 "Hg10 mi
3:53 AM69 °FClear.No wind87%29.89 "Hg10 mi
2:53 AM69 °FClear.No wind87%29.90 "Hg10 mi
1:53 AM70 °FClear.No wind84%29.90 "Hg10 mi
12:53 AM70 °FLow clouds.5 mph84%29.91 "Hg10 mi
11:53 PM
Mon, Jul 25
70 °FClear.5 mph87%29.91 "Hg10 mi
10:53 PM71 °FClear.5 mph84%29.91 "Hg10 mi
9:53 PM71 °FClear.6 mph87%29.91 "Hg10 mi
8:53 PM72 °FSunny.7 mph81%29.90 "Hg10 mi
Weather by CustomWeather, © 2016

See weather overviewHow to use our weather pages